Location: Les Salelles
(44.4192°N, 4.1044°E)
Time: 10:33:17
(UTC+00:00)

CREW DRAGON DEMO-1 DEB - Pass Details

Date: 20 January 2021
Orbit: 334 x 339 km, 51.6° (Epoch: 28 February)

Event Time Altitude Azimuth Distance (km) Brightness Sun altitude
Rises 17:35:33 0° 300° (WNW) 2,168 7.4 -10.5°
Reaches altitude 10° 17:37:50 10° 316° (NW) 1,319 5.9 -10.9°
Maximum altitude 17:40:15 23° 11° (N) 814 4.2 -11.3°
Enters shadow 17:41:25 18° 46° (NE) 952 4.3 -11.5°
